C/2022 E3 ( ZTF )

Japanese version
Home page
Updated on April 28, 2023

---------------------------------------------------------------------

* Profile

Discovery Date March 2, 2022
Magnitude 17.2 mag
Discoverer Zwicky Transient Facility (ZTF)

* Pictures

* Orbital Elements

Epoch 2023 Feb. 25.0 TT = JDT 2460000.5
T 2023 Jan. 12.78408 TT                                 Rudenko
q   1.1122378            (2000.0)            P               Q
z  -0.0002969      Peri.  145.81568     -0.60063860     -0.07340616
 +/-0.0000008      Node   302.55525     +0.33753478     +0.87940598
e   1.0003303      Incl.  109.16805     +0.72477827     -0.47037927
>From 4715 observations 2021 July 10-2022 Dec. 23, mean residual 0".5.

* Finding Charts

* Magnitudes Graph

        m1 = -2.0 + 5 log d + 25   log r  [    ,-288]  (             - 2022 Mar. 30)
        m1 =  7.0 + 5 log d + 10.0 log r  [-288,    ]  (2022 Mar. 30 -             )

---------------------------------------------------------------------

The orbital elements are published on M.P.E.C. 2022-Y114.
The charts are made with StellaNavigator Ver.10 (AstroArts).
The magnitudes graphs are made with Comet for Windows.

---------------------------------------------------------------------

Copyright(C) Seiichi Yoshida (comet@aerith.net). All rights reserved.